Time,TemperatureF,DewpointF,PressureIn,WindDirection,WindDirectionDegrees,WindSpeedMPH,WindSpeedGustMPH,Humidity,HourlyPrecipIn,Conditions,Clouds,dailyrainin,SoftwareType,DateUTC
2013-04-02 00:05:00,34.0,21.6,28.74,North,-999,-999.0,-999.0,60,0.00,,,0.00,meteohub,2013-04-02 05:05:00,
2013-04-02 00:10:00,34.0,21.6,28.73,North,-999,-999.0,-999.0,60,0.00,,,0.00,meteohub,2013-04-02 05:10:00,
2013-04-02 00:15:00,34.0,21.6,28.74,North,-999,-999.0,-999.0,60,0.00,,,0.00,meteohub,2013-04-02 05:15:00,
2013-04-02 00:20:00,33.8,21.4,28.73,North,-999,-999.0,-999.0,60,0.00,,,0.00,meteohub,2013-04-02 05:20:00,
2013-04-02 00:25:00,33.8,21.7,28.73,North,-999,-999.0,-999.0,61,0.00,,,0.00,meteohub,2013-04-02 05:25:00,
2013-04-02 00:30:00,34.2,21.7,28.73,North,-999,-999.0,-999.0,60,0.00,,,0.00,meteohub,2013-04-02 05:30:00,
2013-04-02 00:36:00,34.3,21.6,28.73,North,-999,-999.0,-999.0,59,0.00,,,0.00,meteohub,2013-04-02 05:36:00,
2013-04-02 00:41:00,34.5,21.7,28.73,North,-999,-999.0,-999.0,59,0.00,,,0.00,meteohub,2013-04-02 05:41:00,
2013-04-02 00:46:00,34.5,21.7,28.73,North,-999,-999.0,-999.0,59,0.00,,,0.00,meteohub,2013-04-02 05:46:00,
2013-04-02 00:51:00,34.3,21.9,28.73,North,-999,-999.0,-999.0,60,0.00,,,0.00,meteohub,2013-04-02 05:51:00,
2013-04-02 00:56:00,34.3,21.9,28.73,North,-999,-999.0,-999.0,60,0.00,,,0.00,meteohub,2013-04-02 05:56:00,
2013-04-02 01:01:00,34.3,21.9,28.73,North,-999,-999.0,-999.0,60,0.00,,,0.00,meteohub,2013-04-02 06:01:00,
2013-04-02 01:06:00,34.3,21.9,28.73,North,-999,-999.0,-999.0,60,0.00,,,0.00,meteohub,2013-04-02 06:06:00,
2013-04-02 01:11:00,34.3,21.6,28.72,North,-999,-999.0,-999.0,59,0.00,,,0.00,meteohub,2013-04-02 06:11:00,
2013-04-02 01:16:00,34.5,21.7,28.73,North,-999,-999.0,-999.0,59,0.00,,,0.00,meteohub,2013-04-02 06:16:00,
2013-04-02 01:22:00,34.5,21.7,28.72,North,-999,-999.0,-999.0,59,0.00,,,0.00,meteohub,2013-04-02 06:22:00,
2013-04-02 01:27:00,34.5,21.7,28.73,North,-999,-999.0,-999.0,59,0.00,,,0.00,meteohub,2013-04-02 06:27:00,
2013-04-02 01:32:00,34.3,21.6,28.73,North,-999,-999.0,-999.0,59,0.00,,,0.00,meteohub,2013-04-02 06:32:00,
2013-04-02 01:37:00,34.3,21.9,28.73,North,-999,-999.0,-999.0,60,0.00,,,0.00,meteohub,2013-04-02 06:37:00,
2013-04-02 01:42:00,34.3,21.9,28.73,North,-999,-999.0,-999.0,60,0.00,,,0.00,meteohub,2013-04-02 06:42:00,
2013-04-02 01:47:00,34.2,21.7,28.74,North,-999,-999.0,-999.0,60,0.00,,,0.00,meteohub,2013-04-02 06:47:00,
2013-04-02 01:52:00,34.2,21.7,28.74,North,-999,-999.0,-999.0,60,0.00,,,0.00,meteohub,2013-04-02 06:52:00,
2013-04-02 01:57:00,34.0,21.6,28.74,North,-999,-999.0,-999.0,60,0.00,,,0.00,meteohub,2013-04-02 06:57:00,
2013-04-02 02:02:00,33.8,21.4,28.74,North,-999,-999.0,-999.0,60,0.00,,,0.00,meteohub,2013-04-02 07:02:00,
2013-04-02 02:07:00,33.6,21.2,28.74,North,-999,-999.0,-999.0,60,0.00,,,0.00,meteohub,2013-04-02 07:07:00,
2013-04-02 02:12:00,33.4,21.4,28.74,North,-999,-999.0,-999.0,61,0.00,,,0.00,meteohub,2013-04-02 07:12:00,
2013-04-02 02:17:00,33.3,21.2,28.74,North,-999,-999.0,-999.0,61,0.00,,,0.00,meteohub,2013-04-02 07:17:00,
2013-04-02 02:22:00,33.1,21.6,28.75,North,-999,-999.0,-999.0,62,0.00,,,0.00,meteohub,2013-04-02 07:22:00,
2013-04-02 02:27:00,33.1,21.9,28.74,North,-999,-999.0,-999.0,63,0.00,,,0.00,meteohub,2013-04-02 07:27:00,
2013-04-02 02:32:00,33.4,22.3,28.74,North,-999,-999.0,-999.0,63,0.00,,,0.00,meteohub,2013-04-02 07:32:00,
2013-04-02 02:37:00,33.8,22.1,28.74,North,-999,-999.0,-999.0,62,0.00,,,0.00,meteohub,2013-04-02 07:37:00,
2013-04-02 02:42:00,34.0,22.3,28.74,North,-999,-999.0,-999.0,62,0.00,,,0.00,meteohub,2013-04-02 07:42:00,
2013-04-02 02:47:00,33.8,22.1,28.73,North,-999,-999.0,-999.0,62,0.00,,,0.00,meteohub,2013-04-02 07:47:00,
2013-04-02 02:53:00,33.8,21.7,28.74,North,-999,-999.0,-999.0,61,0.00,,,0.00,meteohub,2013-04-02 07:53:00,
2013-04-02 02:58:00,34.0,21.6,28.73,North,-999,-999.0,-999.0,60,0.00,,,0.00,meteohub,2013-04-02 07:58:00,
2013-04-02 03:03:00,34.2,20.8,28.74,North,-999,-999.0,-999.0,58,0.00,,,0.00,meteohub,2013-04-02 08:03:00,
2013-04-02 03:08:00,34.2,20.8,28.74,North,-999,-999.0,-999.0,58,0.00,,,0.00,meteohub,2013-04-02 08:08:00,
2013-04-02 03:13:00,34.2,20.8,28.74,North,-999,-999.0,-999.0,58,0.00,,,0.00,meteohub,2013-04-02 08:13:00,
2013-04-02 03:19:00,34.0,20.8,28.74,North,-999,-999.0,-999.0,58,0.00,,,0.00,meteohub,2013-04-02 08:19:00,
2013-04-02 03:24:00,34.0,20.8,28.74,North,-999,-999.0,-999.0,58,0.00,,,0.00,meteohub,2013-04-02 08:24:00,
2013-04-02 03:29:00,34.0,20.8,28.74,North,-999,-999.0,-999.0,58,0.00,,,0.00,meteohub,2013-04-02 08:29:00,
2013-04-02 03:34:00,33.8,20.7,28.74,North,-999,-999.0,-999.0,58,0.00,,,0.00,meteohub,2013-04-02 08:34:00,
2013-04-02 03:39:00,33.6,20.5,28.75,North,-999,-999.0,-999.0,58,0.00,,,0.00,meteohub,2013-04-02 08:39:00,
2013-04-02 03:44:00,33.6,20.5,28.74,North,-999,-999.0,-999.0,58,0.00,,,0.00,meteohub,2013-04-02 08:44:00,
2013-04-02 03:49:00,33.4,20.3,28.75,North,-999,-999.0,-999.0,58,0.00,,,0.00,meteohub,2013-04-02 08:49:00,
2013-04-02 03:54:00,33.4,20.7,28.74,North,-999,-999.0,-999.0,59,0.00,,,0.00,meteohub,2013-04-02 08:54:00,
2013-04-02 03:59:00,33.4,20.7,28.74,North,-999,-999.0,-999.0,59,0.00,,,0.00,meteohub,2013-04-02 08:59:00,
2013-04-02 04:05:00,33.3,20.5,28.74,North,-999,-999.0,-999.0,59,0.00,,,0.00,meteohub,2013-04-02 09:05:00,
2013-04-02 04:10:00,33.3,20.8,28.75,North,-999,-999.0,-999.0,60,0.00,,,0.00,meteohub,2013-04-02 09:10:00,
2013-04-02 04:15:00,33.1,20.7,28.74,North,-999,-999.0,-999.0,60,0.00,,,0.00,meteohub,2013-04-02 09:15:00,
2013-04-02 04:20:00,33.1,20.7,28.74,North,-999,-999.0,-999.0,60,0.00,,,0.00,meteohub,2013-04-02 09:20:00,
2013-04-02 04:25:00,33.1,20.7,28.74,North,-999,-999.0,-999.0,60,0.00,,,0.00,meteohub,2013-04-02 09:25:00,
2013-04-02 04:30:00,33.1,21.0,28.74,North,-999,-999.0,-999.0,61,0.00,,,0.00,meteohub,2013-04-02 09:30:00,
2013-04-02 04:35:00,33.1,20.7,28.74,North,-999,-999.0,-999.0,60,0.00,,,0.00,meteohub,2013-04-02 09:35:00,
2013-04-02 04:40:00,33.1,21.0,28.74,North,-999,-999.0,-999.0,61,0.00,,,0.00,meteohub,2013-04-02 09:40:00,
2013-04-02 04:45:00,33.1,21.0,28.74,North,-999,-999.0,-999.0,61,0.00,,,0.00,meteohub,2013-04-02 09:45:00,
2013-04-02 04:51:00,33.1,21.0,28.74,North,-999,-999.0,-999.0,61,0.00,,,0.00,meteohub,2013-04-02 09:51:00,
2013-04-02 04:56:00,33.1,21.0,28.74,North,-999,-999.0,-999.0,61,0.00,,,0.00,meteohub,2013-04-02 09:56:00,
2013-04-02 05:01:00,33.1,21.0,28.74,North,-999,-999.0,-999.0,61,0.00,,,0.00,meteohub,2013-04-02 10:01:00,
2013-04-02 05:06:00,32.9,21.4,28.75,North,-999,-999.0,-999.0,62,0.00,,,0.00,meteohub,2013-04-02 10:06:00,
2013-04-02 05:12:00,32.9,21.4,28.76,North,-999,-999.0,-999.0,62,0.00,,,0.00,meteohub,2013-04-02 10:12:00,
2013-04-02 05:17:00,32.7,21.2,28.76,North,-999,-999.0,-999.0,62,0.00,,,0.00,meteohub,2013-04-02 10:17:00,
2013-04-02 05:22:00,32.5,21.4,28.76,North,-999,-999.0,-999.0,63,0.00,,,0.00,meteohub,2013-04-02 10:22:00,
2013-04-02 05:27:00,32.4,21.2,28.76,North,-999,-999.0,-999.0,63,0.00,,,0.00,meteohub,2013-04-02 10:27:00,
2013-04-02 05:32:00,32.2,21.4,28.76,North,-999,-999.0,-999.0,64,0.00,,,0.00,meteohub,2013-04-02 10:32:00,
2013-04-02 05:38:00,32.0,21.2,28.76,North,-999,-999.0,-999.0,64,0.00,,,0.00,meteohub,2013-04-02 10:38:00,
2013-04-02 05:43:00,31.8,21.0,28.76,North,-999,-999.0,-999.0,64,0.00,,,0.00,meteohub,2013-04-02 10:43:00,
2013-04-02 05:48:00,31.6,21.2,28.76,North,-999,-999.0,-999.0,65,0.00,,,0.00,meteohub,2013-04-02 10:48:00,
2013-04-02 05:53:00,31.6,21.6,28.75,North,-999,-999.0,-999.0,66,0.00,,,0.00,meteohub,2013-04-02 10:53:00,
2013-04-02 05:58:00,31.5,21.4,28.76,North,-999,-999.0,-999.0,66,0.00,,,0.00,meteohub,2013-04-02 10:58:00,
2013-04-02 06:03:00,31.1,21.0,28.75,North,-999,-999.0,-999.0,66,0.00,,,0.00,meteohub,2013-04-02 11:03:00,
2013-04-02 06:08:00,31.1,21.4,28.77,North,-999,-999.0,-999.0,67,0.00,,,0.00,meteohub,2013-04-02 11:08:00,
2013-04-02 06:13:00,30.7,21.0,28.77,North,-999,-999.0,-999.0,67,0.00,,,0.00,meteohub,2013-04-02 11:13:00,
2013-04-02 06:18:00,30.7,21.4,28.77,North,-999,-999.0,-999.0,68,0.00,,,0.00,meteohub,2013-04-02 11:18:00,
2013-04-02 06:24:00,30.4,21.0,28.76,North,-999,-999.0,-999.0,68,0.00,,,0.00,meteohub,2013-04-02 11:24:00,
2013-04-02 06:29:00,30.0,20.7,28.77,North,-999,-999.0,-999.0,68,0.00,,,0.00,meteohub,2013-04-02 11:29:00,
2013-04-02 06:34:00,30.0,21.0,28.77,North,-999,-999.0,-999.0,69,0.00,,,0.00,meteohub,2013-04-02 11:34:00,
2013-04-02 06:39:00,29.8,21.2,28.77,North,-999,-999.0,-999.0,70,0.00,,,0.00,meteohub,2013-04-02 11:39:00,
2013-04-02 06:42:00,29.8,21.2,28.77,North,-999,-999.0,-999.0,70,0.00,,,0.00,meteohub,2013-04-02 11:42:00,
2013-04-02 06:44:00,29.8,21.2,28.77,North,-999,-999.0,-999.0,70,0.00,,,0.00,meteohub,2013-04-02 11:44:00,
2013-04-02 06:49:00,29.7,21.4,28.77,North,-999,-999.0,-999.0,71,0.00,,,0.00,meteohub,2013-04-02 11:49:00,
2013-04-02 06:54:00,29.7,21.4,28.77,North,-999,-999.0,-999.0,71,0.00,,,0.00,meteohub,2013-04-02 11:54:00,
2013-04-02 06:59:00,29.5,21.6,28.77,North,-999,-999.0,-999.0,72,0.00,,,0.00,meteohub,2013-04-02 11:59:00,
2013-04-02 07:04:00,29.5,21.6,28.77,North,-999,-999.0,-999.0,72,0.00,,,0.00,meteohub,2013-04-02 12:04:00,
2013-04-02 07:09:00,29.5,21.6,28.77,North,-999,-999.0,-999.0,72,0.00,,,0.00,meteohub,2013-04-02 12:09:00,
2013-04-02 07:14:00,29.7,21.7,28.78,North,-999,-999.0,-999.0,72,0.00,,,0.00,meteohub,2013-04-02 12:14:00,
2013-04-02 07:19:00,29.7,21.7,28.77,North,-999,-999.0,-999.0,72,0.00,,,0.00,meteohub,2013-04-02 12:19:00,
2013-04-02 07:24:00,29.7,21.7,28.78,North,-999,-999.0,-999.0,72,0.00,,,0.00,meteohub,2013-04-02 12:24:00,
2013-04-02 07:30:00,29.8,22.3,28.78,North,-999,-999.0,-999.0,73,0.00,,,0.00,meteohub,2013-04-02 12:30:00,
2013-04-02 07:35:00,31.1,23.2,28.78,North,-999,-999.0,-999.0,72,0.00,,,0.00,meteohub,2013-04-02 12:35:00,
2013-04-02 07:40:00,32.5,23.9,28.79,North,-999,-999.0,-999.0,70,0.00,,,0.00,meteohub,2013-04-02 12:40:00,
2013-04-02 07:45:00,33.8,24.4,28.78,North,-999,-999.0,-999.0,68,0.00,,,0.00,meteohub,2013-04-02 12:45:00,
2013-04-02 07:50:00,35.1,24.1,28.77,North,-999,-999.0,-999.0,64,0.00,,,0.00,meteohub,2013-04-02 12:50:00,
2013-04-02 07:55:00,35.4,23.7,28.77,North,-999,-999.0,-999.0,62,0.00,,,0.00,meteohub,2013-04-02 12:55:00,
2013-04-02 08:00:00,34.5,23.2,28.77,North,-999,-999.0,-999.0,63,0.00,,,0.00,meteohub,2013-04-02 13:00:00,
2013-04-02 08:05:00,34.2,23.2,28.78,North,-999,-999.0,-999.0,64,0.00,,,0.00,meteohub,2013-04-02 13:05:00,
2013-04-02 08:10:00,35.4,24.4,28.78,North,-999,-999.0,-999.0,64,0.00,,,0.00,meteohub,2013-04-02 13:10:00,
2013-04-02 08:15:00,35.6,23.5,28.77,North,-999,-999.0,-999.0,61,0.00,,,0.00,meteohub,2013-04-02 13:15:00,
2013-04-02 08:20:00,36.0,23.4,28.78,North,-999,-999.0,-999.0,60,0.00,,,0.00,meteohub,2013-04-02 13:20:00,
2013-04-02 08:25:00,36.7,25.0,28.78,North,-999,-999.0,-999.0,62,0.00,,,0.00,meteohub,2013-04-02 13:25:00,
2013-04-02 08:31:00,37.8,24.3,28.78,North,-999,-999.0,-999.0,58,0.00,,,0.00,meteohub,2013-04-02 13:31:00,
2013-04-02 08:36:00,38.8,25.0,28.79,North,-999,-999.0,-999.0,57,0.00,,,0.00,meteohub,2013-04-02 13:36:00,
2013-04-02 08:41:00,38.3,24.4,28.79,North,-999,-999.0,-999.0,57,0.00,,,0.00,meteohub,2013-04-02 13:41:00,
2013-04-02 08:47:00,37.0,24.1,28.79,North,-999,-999.0,-999.0,59,0.00,,,0.00,meteohub,2013-04-02 13:47:00,
2013-04-02 08:52:00,36.0,23.9,28.79,North,-999,-999.0,-999.0,61,0.00,,,0.00,meteohub,2013-04-02 13:52:00,
2013-04-02 08:57:00,35.2,23.2,28.79,North,-999,-999.0,-999.0,61,0.00,,,0.00,meteohub,2013-04-02 13:57:00,
2013-04-02 09:02:00,36.0,24.3,28.79,North,-999,-999.0,-999.0,62,0.00,,,0.00,meteohub,2013-04-02 14:02:00,
2013-04-02 09:07:00,36.9,23.9,28.79,North,-999,-999.0,-999.0,59,0.00,,,0.00,meteohub,2013-04-02 14:07:00,
2013-04-02 09:12:00,36.9,23.9,28.79,North,-999,-999.0,-999.0,59,0.00,,,0.00,meteohub,2013-04-02 14:12:00,
2013-04-02 09:18:00,37.2,24.3,28.79,North,-999,-999.0,-999.0,59,0.00,,,0.00,meteohub,2013-04-02 14:18:00,
2013-04-02 09:23:00,39.2,26.1,28.79,North,-999,-999.0,-999.0,59,0.00,,,0.00,meteohub,2013-04-02 14:23:00,
2013-04-02 09:28:00,39.2,24.4,28.79,North,-999,-999.0,-999.0,55,0.00,,,0.00,meteohub,2013-04-02 14:28:00,
2013-04-02 09:33:00,38.5,24.6,28.79,North,-999,-999.0,-999.0,57,0.00,,,0.00,meteohub,2013-04-02 14:33:00,
2013-04-02 09:38:00,39.4,24.6,28.79,North,-999,-999.0,-999.0,55,0.00,,,0.00,meteohub,2013-04-02 14:38:00,
2013-04-02 09:43:00,39.9,25.0,28.79,North,-999,-999.0,-999.0,55,0.00,,,0.00,meteohub,2013-04-02 14:43:00,
2013-04-02 09:48:00,40.3,25.9,28.78,North,-999,-999.0,-999.0,56,0.00,,,0.00,meteohub,2013-04-02 14:48:00,
2013-04-02 09:53:00,40.5,25.5,28.79,North,-999,-999.0,-999.0,55,0.00,,,0.00,meteohub,2013-04-02 14:53:00,
2013-04-02 09:59:00,39.9,24.6,28.79,North,-999,-999.0,-999.0,54,0.00,,,0.00,meteohub,2013-04-02 14:59:00,
2013-04-02 10:04:00,40.3,25.0,28.79,North,-999,-999.0,-999.0,54,0.00,,,0.00,meteohub,2013-04-02 15:04:00,
2013-04-02 10:09:00,40.8,26.4,28.79,North,-999,-999.0,-999.0,56,0.00,,,0.00,meteohub,2013-04-02 15:09:00,
2013-04-02 10:14:00,41.9,25.5,28.79,North,-999,-999.0,-999.0,52,0.00,,,0.00,meteohub,2013-04-02 15:14:00,
2013-04-02 10:19:00,41.0,25.2,28.79,North,-999,-999.0,-999.0,53,0.00,,,0.00,meteohub,2013-04-02 15:19:00,
2013-04-02 10:24:00,40.6,25.7,28.79,North,-999,-999.0,-999.0,55,0.00,,,0.00,meteohub,2013-04-02 15:24:00,
2013-04-02 10:29:00,41.4,24.6,28.79,North,-999,-999.0,-999.0,51,0.00,,,0.00,meteohub,2013-04-02 15:29:00,
2013-04-02 10:35:00,42.1,25.7,28.79,North,-999,-999.0,-999.0,52,0.00,,,0.00,meteohub,2013-04-02 15:35:00,
2013-04-02 10:40:00,42.8,25.5,28.79,North,-999,-999.0,-999.0,50,0.00,,,0.00,meteohub,2013-04-02 15:40:00,
2013-04-02 10:45:00,42.4,25.5,28.79,North,-999,-999.0,-999.0,51,0.00,,,0.00,meteohub,2013-04-02 15:45:00,
2013-04-02 10:51:00,44.4,27.0,28.79,North,-999,-999.0,-999.0,50,0.00,,,0.00,meteohub,2013-04-02 15:51:00,
2013-04-02 10:56:00,45.9,27.3,28.78,North,-999,-999.0,-999.0,48,0.00,,,0.00,meteohub,2013-04-02 15:56:00,
2013-04-02 11:01:00,44.6,24.6,28.79,North,-999,-999.0,-999.0,45,0.00,,,0.00,meteohub,2013-04-02 16:01:00,
2013-04-02 11:06:00,43.9,25.5,28.78,North,-999,-999.0,-999.0,48,0.00,,,0.00,meteohub,2013-04-02 16:06:00,
2013-04-02 11:11:00,45.5,27.9,28.78,North,-999,-999.0,-999.0,50,0.00,,,0.00,meteohub,2013-04-02 16:11:00,
2013-04-02 11:17:00,45.5,25.9,28.78,North,-999,-999.0,-999.0,46,0.00,,,0.00,meteohub,2013-04-02 16:17:00,
2013-04-02 11:22:00,46.2,25.0,28.77,North,-999,-999.0,-999.0,43,0.00,,,0.00,meteohub,2013-04-02 16:22:00,
2013-04-02 11:27:00,47.1,27.3,28.77,North,-999,-999.0,-999.0,46,0.00,,,0.00,meteohub,2013-04-02 16:27:00,
2013-04-02 11:33:00,45.9,26.2,28.78,North,-999,-999.0,-999.0,46,0.00,,,0.00,meteohub,2013-04-02 16:33:00,
2013-04-02 11:38:00,46.6,24.8,28.77,North,-999,-999.0,-999.0,42,0.00,,,0.00,meteohub,2013-04-02 16:38:00,
2013-04-02 11:44:00,47.3,24.8,28.78,North,-999,-999.0,-999.0,41,0.00,,,0.00,meteohub,2013-04-02 16:44:00,
2013-04-02 11:49:00,46.8,27.1,28.77,North,-999,-999.0,-999.0,46,0.00,,,0.00,meteohub,2013-04-02 16:49:00,
2013-04-02 11:55:00,46.9,25.5,28.78,North,-999,-999.0,-999.0,43,0.00,,,0.00,meteohub,2013-04-02 16:55:00,
2013-04-02 12:00:00,47.5,25.5,28.78,North,-999,-999.0,-999.0,42,0.00,,,0.00,meteohub,2013-04-02 17:00:00,
2013-04-02 12:05:00,47.7,25.7,28.78,North,-999,-999.0,-999.0,42,0.00,,,0.00,meteohub,2013-04-02 17:05:00,
2013-04-02 12:10:00,47.1,25.7,28.77,North,-999,-999.0,-999.0,43,0.00,,,0.00,meteohub,2013-04-02 17:10:00,
2013-04-02 12:15:00,48.6,25.3,28.77,North,-999,-999.0,-999.0,40,0.00,,,0.00,meteohub,2013-04-02 17:15:00,
2013-04-02 12:20:00,49.6,27.5,28.77,North,-999,-999.0,-999.0,42,0.00,,,0.00,meteohub,2013-04-02 17:20:00,
2013-04-02 12:26:00,49.3,25.3,28.77,North,-999,-999.0,-999.0,39,0.00,,,0.00,meteohub,2013-04-02 17:26:00,
2013-04-02 12:31:00,49.3,26.1,28.77,North,-999,-999.0,-999.0,40,0.00,,,0.00,meteohub,2013-04-02 17:31:00,
2013-04-02 12:37:00,49.5,26.1,28.76,North,-999,-999.0,-999.0,40,0.00,,,0.00,meteohub,2013-04-02 17:37:00,
2013-04-02 12:42:00,49.1,25.9,28.77,North,-999,-999.0,-999.0,40,0.00,,,0.00,meteohub,2013-04-02 17:42:00,
2013-04-02 12:47:00,48.9,27.3,28.77,North,-999,-999.0,-999.0,43,0.00,,,0.00,meteohub,2013-04-02 17:47:00,
2013-04-02 12:52:00,48.2,26.2,28.76,North,-999,-999.0,-999.0,42,0.00,,,0.00,meteohub,2013-04-02 17:52:00,
2013-04-02 12:57:00,49.8,27.7,28.76,North,-999,-999.0,-999.0,42,0.00,,,0.00,meteohub,2013-04-02 17:57:00,
2013-04-02 13:02:00,49.6,25.7,28.76,North,-999,-999.0,-999.0,39,0.00,,,0.00,meteohub,2013-04-02 18:02:00,
2013-04-02 13:07:00,51.4,30.2,28.76,North,-999,-999.0,-999.0,44,0.00,,,0.00,meteohub,2013-04-02 18:07:00,
2013-04-02 13:12:00,51.8,28.8,28.76,North,-999,-999.0,-999.0,41,0.00,,,0.00,meteohub,2013-04-02 18:12:00,
2013-04-02 13:18:00,51.6,26.8,28.76,North,-999,-999.0,-999.0,38,0.00,,,0.00,meteohub,2013-04-02 18:18:00,
2013-04-02 13:23:00,51.4,27.3,28.76,North,-999,-999.0,-999.0,39,0.00,,,0.00,meteohub,2013-04-02 18:23:00,
2013-04-02 13:28:00,50.7,27.9,28.77,North,-999,-999.0,-999.0,41,0.00,,,0.00,meteohub,2013-04-02 18:28:00,
2013-04-02 13:34:00,51.1,27.0,28.76,North,-999,-999.0,-999.0,39,0.00,,,0.00,meteohub,2013-04-02 18:34:00,
2013-04-02 13:39:00,50.5,27.1,28.76,North,-999,-999.0,-999.0,40,0.00,,,0.00,meteohub,2013-04-02 18:39:00,
2013-04-02 13:44:00,51.1,28.2,28.76,North,-999,-999.0,-999.0,41,0.00,,,0.00,meteohub,2013-04-02 18:44:00,
2013-04-02 13:50:00,52.3,27.5,28.75,North,-999,-999.0,-999.0,38,0.00,,,0.00,meteohub,2013-04-02 18:50:00,
2013-04-02 13:55:00,51.6,26.8,28.75,North,-999,-999.0,-999.0,38,0.00,,,0.00,meteohub,2013-04-02 18:55:00,
2013-04-02 14:00:00,51.8,27.7,28.75,North,-999,-999.0,-999.0,39,0.00,,,0.00,meteohub,2013-04-02 19:00:00,
2013-04-02 14:05:00,51.8,26.4,28.75,North,-999,-999.0,-999.0,37,0.00,,,0.00,meteohub,2013-04-02 19:05:00,
2013-04-02 14:10:00,52.5,28.2,28.75,North,-999,-999.0,-999.0,39,0.00,,,0.00,meteohub,2013-04-02 19:10:00,
2013-04-02 14:15:00,53.8,29.5,28.74,North,-999,-999.0,-999.0,39,0.00,,,0.00,meteohub,2013-04-02 19:15:00,
2013-04-02 14:20:00,53.2,28.2,28.74,North,-999,-999.0,-999.0,38,0.00,,,0.00,meteohub,2013-04-02 19:20:00,
2013-04-02 14:26:00,52.9,28.0,28.75,North,-999,-999.0,-999.0,38,0.00,,,0.00,meteohub,2013-04-02 19:26:00,
2013-04-02 14:31:00,52.3,27.5,28.74,North,-999,-999.0,-999.0,38,0.00,,,0.00,meteohub,2013-04-02 19:31:00,
2013-04-02 14:37:00,52.9,28.6,28.74,North,-999,-999.0,-999.0,39,0.00,,,0.00,meteohub,2013-04-02 19:37:00,
2013-04-02 14:42:00,53.2,26.2,28.74,North,-999,-999.0,-999.0,35,0.00,,,0.00,meteohub,2013-04-02 19:42:00,
2013-04-02 14:47:00,53.2,27.7,28.74,North,-999,-999.0,-999.0,37,0.00,,,0.00,meteohub,2013-04-02 19:47:00,
2013-04-02 14:52:00,54.1,28.4,28.74,North,-999,-999.0,-999.0,37,0.00,,,0.00,meteohub,2013-04-02 19:52:00,
2013-04-02 14:57:00,54.5,26.8,28.73,North,-999,-999.0,-999.0,34,0.00,,,0.00,meteohub,2013-04-02 19:57:00,
2013-04-02 15:03:00,54.9,29.1,28.73,North,-999,-999.0,-999.0,37,0.00,,,0.00,meteohub,2013-04-02 20:03:00,
2013-04-02 15:08:00,54.9,27.7,28.73,North,-999,-999.0,-999.0,35,0.00,,,0.00,meteohub,2013-04-02 20:08:00,
2013-04-02 15:13:00,54.7,28.2,28.72,North,-999,-999.0,-999.0,36,0.00,,,0.00,meteohub,2013-04-02 20:13:00,
2013-04-02 15:19:00,55.8,27.9,28.73,North,-999,-999.0,-999.0,34,0.00,,,0.00,meteohub,2013-04-02 20:19:00,
2013-04-02 15:24:00,55.2,28.0,28.72,North,-999,-999.0,-999.0,35,0.00,,,0.00,meteohub,2013-04-02 20:24:00,
2013-04-02 15:29:00,55.2,28.8,28.72,North,-999,-999.0,-999.0,36,0.00,,,0.00,meteohub,2013-04-02 20:29:00,
2013-04-02 15:35:00,55.4,28.2,28.72,North,-999,-999.0,-999.0,35,0.00,,,0.00,meteohub,2013-04-02 20:35:00,
2013-04-02 15:40:00,54.0,27.0,28.73,North,-999,-999.0,-999.0,35,0.00,,,0.00,meteohub,2013-04-02 20:40:00,
2013-04-02 15:45:00,54.7,29.5,28.72,North,-999,-999.0,-999.0,38,0.00,,,0.00,meteohub,2013-04-02 20:45:00,
2013-04-02 15:50:00,55.0,27.1,28.72,North,-999,-999.0,-999.0,34,0.00,,,0.00,meteohub,2013-04-02 20:50:00,
2013-04-02 15:57:00,54.3,28.6,28.72,North,-999,-999.0,-999.0,37,0.00,,,0.00,meteohub,2013-04-02 20:57:00,
2013-04-02 16:02:00,54.5,27.3,28.71,North,-999,-999.0,-999.0,35,0.00,,,0.00,meteohub,2013-04-02 21:02:00,
2013-04-02 16:07:00,54.1,28.4,28.71,North,-999,-999.0,-999.0,37,0.00,,,0.00,meteohub,2013-04-02 21:07:00,
2013-04-02 16:12:00,52.2,26.6,28.71,North,-999,-999.0,-999.0,37,0.00,,,0.00,meteohub,2013-04-02 21:12:00,
2013-04-02 16:18:00,52.7,29.1,28.71,North,-999,-999.0,-999.0,40,0.00,,,0.00,meteohub,2013-04-02 21:18:00,
2013-04-02 16:23:00,54.7,28.9,28.70,North,-999,-999.0,-999.0,37,0.00,,,0.00,meteohub,2013-04-02 21:23:00,
2013-04-02 16:28:00,55.8,28.6,28.71,North,-999,-999.0,-999.0,35,0.00,,,0.00,meteohub,2013-04-02 21:28:00,
2013-04-02 16:33:00,56.3,28.2,28.71,North,-999,-999.0,-999.0,34,0.00,,,0.00,meteohub,2013-04-02 21:33:00,
2013-04-02 16:39:00,56.8,29.5,28.71,North,-999,-999.0,-999.0,35,0.00,,,0.00,meteohub,2013-04-02 21:39:00,
2013-04-02 16:44:00,56.8,30.2,28.71,North,-999,-999.0,-999.0,36,0.00,,,0.00,meteohub,2013-04-02 21:44:00,
2013-04-02 16:49:00,55.8,28.6,28.71,North,-999,-999.0,-999.0,35,0.00,,,0.00,meteohub,2013-04-02 21:49:00,
2013-04-02 16:54:00,55.4,29.5,28.71,North,-999,-999.0,-999.0,37,0.00,,,0.00,meteohub,2013-04-02 21:54:00,
2013-04-02 16:59:00,54.1,29.1,28.71,North,-999,-999.0,-999.0,38,0.00,,,0.00,meteohub,2013-04-02 21:59:00,
2013-04-02 17:05:00,53.6,27.3,28.71,North,-999,-999.0,-999.0,36,0.00,,,0.00,meteohub,2013-04-02 22:05:00,
2013-04-02 17:10:00,52.9,28.0,28.71,North,-999,-999.0,-999.0,38,0.00,,,0.00,meteohub,2013-04-02 22:10:00,
2013-04-02 17:15:00,52.9,28.0,28.71,North,-999,-999.0,-999.0,38,0.00,,,0.00,meteohub,2013-04-02 22:15:00,
2013-04-02 17:20:00,52.9,28.6,28.70,North,-999,-999.0,-999.0,39,0.00,,,0.00,meteohub,2013-04-02 22:20:00,
2013-04-02 17:26:00,53.8,27.5,28.70,North,-999,-999.0,-999.0,36,0.00,,,0.00,meteohub,2013-04-02 22:26:00,
2013-04-02 17:31:00,52.9,28.0,28.71,North,-999,-999.0,-999.0,38,0.00,,,0.00,meteohub,2013-04-02 22:31:00,
2013-04-02 17:36:00,53.1,27.5,28.70,North,-999,-999.0,-999.0,37,0.00,,,0.00,meteohub,2013-04-02 22:36:00,
2013-04-02 17:41:00,52.7,27.1,28.70,North,-999,-999.0,-999.0,37,0.00,,,0.00,meteohub,2013-04-02 22:41:00,
2013-04-02 17:47:00,52.5,27.0,28.70,North,-999,-999.0,-999.0,37,0.00,,,0.00,meteohub,2013-04-02 22:47:00,
2013-04-02 17:52:00,51.4,27.9,28.70,North,-999,-999.0,-999.0,40,0.00,,,0.00,meteohub,2013-04-02 22:52:00,
2013-04-02 17:57:00,51.3,27.1,28.70,North,-999,-999.0,-999.0,39,0.00,,,0.00,meteohub,2013-04-02 22:57:00,
2013-04-02 18:02:00,51.1,27.7,28.70,North,-999,-999.0,-999.0,40,0.00,,,0.00,meteohub,2013-04-02 23:02:00,
2013-04-02 18:07:00,50.7,27.3,28.70,North,-999,-999.0,-999.0,40,0.00,,,0.00,meteohub,2013-04-02 23:07:00,
2013-04-02 18:13:00,50.5,27.1,28.69,North,-999,-999.0,-999.0,40,0.00,,,0.00,meteohub,2013-04-02 23:13:00,
2013-04-02 18:18:00,50.9,28.0,28.70,North,-999,-999.0,-999.0,41,0.00,,,0.00,meteohub,2013-04-02 23:18:00,
2013-04-02 18:23:00,50.5,27.7,28.71,North,-999,-999.0,-999.0,41,0.00,,,0.00,meteohub,2013-04-02 23:23:00,
2013-04-02 18:29:00,49.6,26.2,28.71,North,-999,-999.0,-999.0,40,0.00,,,0.00,meteohub,2013-04-02 23:29:00,
2013-04-02 18:34:00,49.1,27.0,28.70,North,-999,-999.0,-999.0,42,0.00,,,0.00,meteohub,2013-04-02 23:34:00,
2013-04-02 18:39:00,48.6,27.1,28.70,North,-999,-999.0,-999.0,43,0.00,,,0.00,meteohub,2013-04-02 23:39:00,
2013-04-02 18:45:00,48.4,27.5,28.70,North,-999,-999.0,-999.0,44,0.00,,,0.00,meteohub,2013-04-02 23:45:00,
2013-04-02 18:50:00,48.2,26.8,28.71,North,-999,-999.0,-999.0,43,0.00,,,0.00,meteohub,2013-04-02 23:50:00,
2013-04-02 18:55:00,47.8,26.4,28.70,North,-999,-999.0,-999.0,43,0.00,,,0.00,meteohub,2013-04-02 23:55:00,
2013-04-02 19:01:00,47.7,26.2,28.71,North,-999,-999.0,-999.0,43,0.00,,,0.00,meteohub,2013-04-03 00:01:00,
2013-04-02 19:06:00,47.3,26.4,28.70,North,-999,-999.0,-999.0,44,0.00,,,0.00,meteohub,2013-04-03 00:06:00,
2013-04-02 19:11:00,47.1,26.2,28.70,North,-999,-999.0,-999.0,44,0.00,,,0.00,meteohub,2013-04-03 00:11:00,
2013-04-02 19:17:00,46.9,26.2,28.70,North,-999,-999.0,-999.0,44,0.00,,,0.00,meteohub,2013-04-03 00:17:00,
2013-04-02 19:22:00,46.8,26.6,28.70,North,-999,-999.0,-999.0,45,0.00,,,0.00,meteohub,2013-04-03 00:22:00,
2013-04-02 19:27:00,46.6,26.4,28.71,North,-999,-999.0,-999.0,45,0.00,,,0.00,meteohub,2013-04-03 00:27:00,
2013-04-02 19:32:00,46.2,26.6,28.71,North,-999,-999.0,-999.0,46,0.00,,,0.00,meteohub,2013-04-03 00:32:00,
2013-04-02 19:38:00,45.9,26.2,28.70,North,-999,-999.0,-999.0,46,0.00,,,0.00,meteohub,2013-04-03 00:38:00,
2013-04-02 19:44:00,45.5,26.4,28.70,North,-999,-999.0,-999.0,47,0.00,,,0.00,meteohub,2013-04-03 00:44:00,
2013-04-02 19:50:00,45.5,26.4,28.70,North,-999,-999.0,-999.0,47,0.00,,,0.00,meteohub,2013-04-03 00:50:00,
2013-04-02 19:55:00,45.3,26.2,28.70,North,-999,-999.0,-999.0,47,0.00,,,0.00,meteohub,2013-04-03 00:55:00,
2013-04-02 20:00:00,45.1,26.6,28.71,North,-999,-999.0,-999.0,48,0.00,,,0.00,meteohub,2013-04-03 01:00:00,
2013-04-02 20:06:00,44.8,26.2,28.71,North,-999,-999.0,-999.0,48,0.00,,,0.00,meteohub,2013-04-03 01:06:00,
2013-04-02 20:11:00,44.6,26.1,28.71,North,-999,-999.0,-999.0,48,0.00,,,0.00,meteohub,2013-04-03 01:11:00,
2013-04-02 20:17:00,44.6,26.1,28.71,North,-999,-999.0,-999.0,48,0.00,,,0.00,meteohub,2013-04-03 01:17:00,
2013-04-02 20:22:00,44.4,25.9,28.71,North,-999,-999.0,-999.0,48,0.00,,,0.00,meteohub,2013-04-03 01:22:00,
2013-04-02 20:27:00,44.1,26.1,28.71,North,-999,-999.0,-999.0,49,0.00,,,0.00,meteohub,2013-04-03 01:27:00,
2013-04-02 20:32:00,43.9,25.9,28.71,North,-999,-999.0,-999.0,49,0.00,,,0.00,meteohub,2013-04-03 01:32:00,
2013-04-02 20:37:00,43.9,25.9,28.71,North,-999,-999.0,-999.0,49,0.00,,,0.00,meteohub,2013-04-03 01:37:00,
2013-04-02 20:42:00,43.5,26.1,28.71,North,-999,-999.0,-999.0,50,0.00,,,0.00,meteohub,2013-04-03 01:42:00,
2013-04-02 20:48:00,43.3,25.9,28.71,North,-999,-999.0,-999.0,50,0.00,,,0.00,meteohub,2013-04-03 01:48:00,
2013-04-02 20:53:00,43.2,26.2,28.71,North,-999,-999.0,-999.0,51,0.00,,,0.00,meteohub,2013-04-03 01:53:00,
2013-04-02 20:58:00,43.0,26.6,28.71,North,-999,-999.0,-999.0,52,0.00,,,0.00,meteohub,2013-04-03 01:58:00,
2013-04-02 21:03:00,42.8,26.4,28.72,North,-999,-999.0,-999.0,52,0.00,,,0.00,meteohub,2013-04-03 02:03:00,
2013-04-02 21:09:00,42.6,26.2,28.72,North,-999,-999.0,-999.0,52,0.00,,,0.00,meteohub,2013-04-03 02:09:00,
2013-04-02 21:14:00,42.3,25.9,28.73,North,-999,-999.0,-999.0,52,0.00,,,0.00,meteohub,2013-04-03 02:14:00,
2013-04-02 21:19:00,42.1,26.2,28.73,North,-999,-999.0,-999.0,53,0.00,,,0.00,meteohub,2013-04-03 02:19:00,
2013-04-02 21:25:00,41.9,26.4,28.73,North,-999,-999.0,-999.0,54,0.00,,,0.00,meteohub,2013-04-03 02:25:00,
2013-04-02 21:30:00,41.7,26.2,28.73,North,-999,-999.0,-999.0,54,0.00,,,0.00,meteohub,2013-04-03 02:30:00,
2013-04-02 21:35:00,41.4,25.9,28.73,North,-999,-999.0,-999.0,54,0.00,,,0.00,meteohub,2013-04-03 02:35:00,
2013-04-02 21:40:00,41.2,26.2,28.73,North,-999,-999.0,-999.0,55,0.00,,,0.00,meteohub,2013-04-03 02:40:00,
2013-04-02 21:45:00,41.0,26.4,28.73,North,-999,-999.0,-999.0,56,0.00,,,0.00,meteohub,2013-04-03 02:45:00,
2013-04-02 21:50:00,41.0,26.4,28.73,North,-999,-999.0,-999.0,56,0.00,,,0.00,meteohub,2013-04-03 02:50:00,
2013-04-02 21:55:00,40.6,26.6,28.74,North,-999,-999.0,-999.0,57,0.00,,,0.00,meteohub,2013-04-03 02:55:00,
2013-04-02 22:00:00,40.5,26.4,28.74,North,-999,-999.0,-999.0,57,0.00,,,0.00,meteohub,2013-04-03 03:00:00,
2013-04-02 22:05:00,40.1,26.6,28.74,North,-999,-999.0,-999.0,58,0.00,,,0.00,meteohub,2013-04-03 03:05:00,
2013-04-02 22:11:00,39.7,26.2,28.74,North,-999,-999.0,-999.0,58,0.00,,,0.00,meteohub,2013-04-03 03:11:00,
2013-04-02 22:17:00,39.2,26.1,28.74,North,-999,-999.0,-999.0,59,0.00,,,0.00,meteohub,2013-04-03 03:17:00,
2013-04-02 22:22:00,39.2,26.4,28.74,North,-999,-999.0,-999.0,60,0.00,,,0.00,meteohub,2013-04-03 03:22:00,
2013-04-02 22:27:00,39.0,26.2,28.74,North,-999,-999.0,-999.0,60,0.00,,,0.00,meteohub,2013-04-03 03:27:00,
2013-04-02 22:33:00,38.7,26.1,28.74,North,-999,-999.0,-999.0,60,0.00,,,0.00,meteohub,2013-04-03 03:33:00,
2013-04-02 22:38:00,38.5,26.2,28.73,North,-999,-999.0,-999.0,61,0.00,,,0.00,meteohub,2013-04-03 03:38:00,
2013-04-02 22:43:00,38.5,26.2,28.73,North,-999,-999.0,-999.0,61,0.00,,,0.00,meteohub,2013-04-03 03:43:00,
2013-04-02 22:48:00,38.5,26.2,28.74,North,-999,-999.0,-999.0,61,0.00,,,0.00,meteohub,2013-04-03 03:48:00,
2013-04-02 22:54:00,38.3,26.1,28.74,North,-999,-999.0,-999.0,61,0.00,,,0.00,meteohub,2013-04-03 03:54:00,
2013-04-02 22:59:00,38.1,26.2,28.74,North,-999,-999.0,-999.0,62,0.00,,,0.00,meteohub,2013-04-03 03:59:00,
2013-04-02 23:00:00,38.3,26.4,28.73,North,-999,-999.0,-999.0,62,0.00,,,0.00,meteohub,2013-04-03 04:00:00,
2013-04-02 23:01:00,38.3,26.4,28.74,North,-999,-999.0,-999.0,62,0.00,,,0.00,meteohub,2013-04-03 04:01:00,
2013-04-02 23:02:00,38.3,26.4,28.74,North,-999,-999.0,-999.0,62,0.00,,,0.00,meteohub,2013-04-03 04:02:00,
2013-04-02 23:04:00,38.3,26.4,28.74,North,-999,-999.0,-999.0,62,0.00,,,0.00,meteohub,2013-04-03 04:04:00,
2013-04-02 23:09:00,38.3,26.1,28.74,North,-999,-999.0,-999.0,61,0.00,,,0.00,meteohub,2013-04-03 04:09:00,
2013-04-02 23:14:00,38.1,25.9,28.74,North,-999,-999.0,-999.0,61,0.00,,,0.00,meteohub,2013-04-03 04:14:00,
2013-04-02 23:20:00,37.9,25.7,28.74,North,-999,-999.0,-999.0,61,0.00,,,0.00,meteohub,2013-04-03 04:20:00,
2013-04-02 23:25:00,37.6,25.3,28.73,North,-999,-999.0,-999.0,61,0.00,,,0.00,meteohub,2013-04-03 04:25:00,
2013-04-02 23:30:00,37.6,25.3,28.73,North,-999,-999.0,-999.0,61,0.00,,,0.00,meteohub,2013-04-03 04:30:00,
2013-04-02 23:35:00,37.4,25.5,28.74,North,-999,-999.0,-999.0,62,0.00,,,0.00,meteohub,2013-04-03 04:35:00,
2013-04-02 23:40:00,37.0,25.2,28.74,North,-999,-999.0,-999.0,62,0.00,,,0.00,meteohub,2013-04-03 04:40:00,
2013-04-02 23:46:00,36.7,25.3,28.74,North,-999,-999.0,-999.0,63,0.00,,,0.00,meteohub,2013-04-03 04:46:00,
2013-04-02 23:51:00,36.3,25.3,28.74,North,-999,-999.0,-999.0,64,0.00,,,0.00,meteohub,2013-04-03 04:51:00,
2013-04-02 23:56:00,36.3,25.3,28.74,North,-999,-999.0,-999.0,64,0.00,,,0.00,meteohub,2013-04-03 04:56:00,